Location: Newark
(51.5114°N, 0.0848°W)
Time: 20:19:58
(UTC+00:00)

N. Korean satellite - Pass Details

Date: 31 October 2019
Orbit: 456 x 506 km, 97.2° (Epoch: 12 November)

Event Time Altitude Azimuth Distance (km) Brightness Sun altitude
Rises 04:47:35 0° 30° (NNE) 2,597 10.7 -19.7°
Reaches altitude 10° 04:50:38 10° 58° (ENE) 1,716 10.2 -19.2°
Maximum altitude 04:52:30 13° 89° (E) 1,515 10.2 -18.9°
Drops below altitude 10° 04:54:21 10° 119° (ESE) 1,716 10.2 -18.6°
Sets 04:57:23 0° 147° (SSE) 2,599 10.7 -18.1°
